Location: Newark
(35.6799°N, 139.7636°E)
Time: 06:29:47
(UTC+00:00)

Courier 1B - Pass Details

Date: 13 December 2019
Orbit: 962 x 1209 km, 28.3° (Epoch: 27 January)

Event Time Altitude Azimuth Distance (km) Brightness Sun altitude
Rises 08:21:10 0° 201° (SSW) 3,722 11.2 -10.6°
Reaches altitude 10° 08:25:37 10° 174° (S) 2,828 10.1 -11.5°
Maximum altitude 08:28:25 13° 149° (SSE) 2,665 9.7 -12.0°
Drops below altitude 10° 08:31:18 10° 125° (SE) 2,907 9.6 -12.6°
Enters shadow 08:33:17 - 112° (ESE) 3,271 9.8 -12.9°
